When you browse on this site, cookies collect data to enhance your experience and personalize the content and advertising you see.
Visit our Privacy Policy to learn more. By continuing to use the site, you agree to this use of cookies and data.
  • In Portugal
  • List of Countries
  • For 7 days
  • Water Temperature
  • Satellite Maps
  • Weather Map
  • Weather Widgets
  • user-avatar
    Login

    Hourly Weather Skalnyy

    Today, 20 April, Saturday

    Time Temperature Precipitation Wind Pressure Humidity
    00:00 -2°C° 0 mm 1 mps 737 mmHg 92%
    01:00 -2°C° 0 mm 1 mps 737 mmHg 93%
    02:00 -2°C° 0 mm 1 mps 737 mmHg 94%
    03:00 -2°C° 0 mm 1 mps 737 mmHg 95%
    04:00 -2°C° 0 mm 1 mps 737 mmHg 95%
    05:00 -1°C° 0 mm 1 mps 737 mmHg 94%
    06:00 0°C° 0 mm 1 mps 738 mmHg 92%
    07:00 +1°C° 0 mm 1 mps 738 mmHg 91%
    08:00 +1°C° 0 mm 2 mps 738 mmHg 88%
    09:00 +2°C° 0 mm 2 mps 738 mmHg 85%
    10:00 +2°C° 0 mm 3 mps 738 mmHg 83%
    11:00 +2°C° 0.1 mm 3 mps 738 mmHg 83%
    12:00 +2°C° 0.1 mm 3 mps 738 mmHg 82%
    13:00 +2°C° 0.1 mm 3 mps 738 mmHg 82%
    14:00 +3°C° 0.1 mm 3 mps 738 mmHg 80%
    15:00 +3°C° 0.1 mm 3 mps 738 mmHg 79%
    16:00 +3°C° 0.1 mm 3 mps 739 mmHg 77%
    17:00 +3°C° 0 mm 2 mps 739 mmHg 81%
    18:00 +2°C° 0 mm 2 mps 738 mmHg 85%
    19:00 +3°C° 0 mm 1 mps 738 mmHg 89%
    20:00 +2°C° 0 mm 1 mps 739 mmHg 91%
    21:00 +1°C° 0 mm 1 mps 739 mmHg 92%
    22:00 0°C° 0 mm 1 mps 739 mmHg 94%
    23:00 0°C° 0 mm 1 mps 739 mmHg 94%

    Tomorrow, 21 April, Sunday

    Time Temperature Precipitation Wind Pressure Humidity
    00:00 -1°C° 0 mm 1 mps 739 mmHg 95%
    01:00 -1°C° 0 mm 1 mps 739 mmHg 95%
    02:00 -1°C° 0 mm 1 mps 739 mmHg 96%
    03:00 -2°C° 0 mm 1 mps 739 mmHg 96%
    04:00 -2°C° 0 mm 1 mps 739 mmHg 96%
    05:00 -1°C° 0 mm 1 mps 739 mmHg 94%
    06:00 0°C° 0 mm 1 mps 739 mmHg 92%
    07:00 +1°C° 0 mm 1 mps 739 mmHg 91%
    08:00 +2°C° 0 mm 2 mps 739 mmHg 85%
    09:00 +2°C° 0 mm 3 mps 739 mmHg 78%
    10:00 +3°C° 0 mm 3 mps 739 mmHg 72%
    11:00 +3°C° 0 mm 3 mps 738 mmHg 72%
    12:00 +3°C° 0 mm 4 mps 738 mmHg 71%
    13:00 +4°C° 0 mm 4 mps 738 mmHg 71%
    14:00 +4°C° 0 mm 4 mps 738 mmHg 72%
    15:00 +4°C° 0 mm 4 mps 738 mmHg 72%
    16:00 +3°C° 0 mm 3 mps 737 mmHg 73%
    17:00 +3°C° 0 mm 3 mps 737 mmHg 77%
    18:00 +3°C° 0 mm 2 mps 737 mmHg 82%
    19:00 +2°C° 0 mm 2 mps 737 mmHg 87%
    20:00 +2°C° 0 mm 2 mps 737 mmHg 88%
    21:00 +2°C° 0 mm 2 mps 737 mmHg 89%
    22:00 +2°C° 0 mm 2 mps 737 mmHg 91%
    23:00 +2°C° 0 mm 2 mps 737 mmHg 92%

    Day after tomorrow, 22 April, Monday

    Time Temperature Precipitation Wind Pressure Humidity
    00:00 +2°C° 0 mm 2 mps 737 mmHg 93%
    01:00 +2°C° 0 mm 2 mps 737 mmHg 95%
    02:00 +2°C° 0 mm 2 mps 737 mmHg 96%
    03:00 +1°C° 0 mm 2 mps 737 mmHg 96%
    04:00 +2°C° 0 mm 1 mps 737 mmHg 97%
    05:00 +2°C° 0.2 mm 2 mps 737 mmHg 96%
    06:00 +2°C° 0.2 mm 2 mps 737 mmHg 95%
    07:00 +2°C° 0.2 mm 2 mps 737 mmHg 94%
    08:00 +4°C° 0 mm 2 mps 737 mmHg 90%
    09:00 +4°C° 0 mm 3 mps 737 mmHg 85%
    10:00 +7°C° 0 mm 3 mps 737 mmHg 80%
    11:00 +8°C° 0 mm 3 mps 737 mmHg 75%
    12:00 +9°C° 0 mm 3 mps 737 mmHg 71%
    13:00 +10°C° 0 mm 3 mps 737 mmHg 66%
    14:00 +10°C° 0 mm 3 mps 736 mmHg 65%
    15:00 +10°C° 0 mm 3 mps 736 mmHg 64%
    16:00 +11°C° 0 mm 3 mps 736 mmHg 63%
    17:00 +9°C° 0 mm 3 mps 736 mmHg 69%
    18:00 +8°C° 0 mm 2 mps 735 mmHg 74%
    19:00 +7°C° 0 mm 2 mps 735 mmHg 80%
    20:00 +6°C° 0 mm 2 mps 735 mmHg 84%
    21:00 +5°C° 0 mm 2 mps 735 mmHg 87%
    22:00 +5°C° 0 mm 2 mps 734 mmHg 91%
    23:00 +4°C° 0 mm 2 mps 734 mmHg 91%

    23 April, Tuesday

    Time Temperature Precipitation Wind Pressure Humidity
    00:00 +4°C° 0 mm 2 mps 734 mmHg 91%
    01:00 +4°C° 0 mm 2 mps 733 mmHg 91%
    02:00 +4°C° 0.1 mm 2 mps 733 mmHg 91%
    03:00 +3°C° 0.1 mm 2 mps 733 mmHg 91%
    04:00 +3°C° 0.1 mm 2 mps 733 mmHg 91%
    05:00 +3°C° 0.6 mm 2 mps 733 mmHg 92%
    06:00 +4°C° 0.6 mm 2 mps 733 mmHg 93%
    07:00 +4°C° 0.6 mm 2 mps 733 mmHg 93%
    08:00 +5°C° 0.4 mm 2 mps 733 mmHg 89%
    09:00 +4°C° 0.4 mm 3 mps 733 mmHg 85%
    10:00 +5°C° 0.4 mm 3 mps 733 mmHg 81%
    11:00 +7°C° 0 mm 3 mps 733 mmHg 72%
    12:00 +8°C° 0 mm 3 mps 733 mmHg 63%
    13:00 +10°C° 0 mm 3 mps 733 mmHg 54%
    14:00 +9°C° 0.1 mm 3 mps 733 mmHg 54%
    15:00 +9°C° 0.1 mm 3 mps 733 mmHg 54%
    16:00 +9°C° 0.1 mm 3 mps 733 mmHg 54%
    17:00 +8°C° 0.1 mm 3 mps 733 mmHg 59%
    18:00 +7°C° 0.1 mm 2 mps 734 mmHg 64%
    19:00 +7°C° 0.1 mm 2 mps 734 mmHg 69%
    20:00 +6°C° 0 mm 1 mps 734 mmHg 73%
    21:00 +5°C° 0 mm 1 mps 734 mmHg 78%
    22:00 +4°C° 0 mm 1 mps 734 mmHg 82%
    23:00 +4°C° 0 mm 1 mps 734 mmHg 83%

    24 April, Wednesday

    Time Temperature Precipitation Wind Pressure Humidity
    00:00 +4°C° 0 mm 1 mps 734 mmHg 84%
    01:00 +3°C° 0 mm 1 mps 734 mmHg 85%
    02:00 +3°C° 0 mm 1 mps 734 mmHg 87%
    03:00 +1°C° 0 mm 0 mps 734 mmHg 88%
    04:00 +1°C° 0 mm 0 mps 734 mmHg 90%
    05:00 +3°C° 0 mm 1 mps 734 mmHg 87%
    06:00 +4°C° 0 mm 1 mps 734 mmHg 84%
    07:00 +5°C° 0 mm 1 mps 733 mmHg 81%
    08:00 +6°C° 0.1 mm 1 mps 733 mmHg 79%
    09:00 +6°C° 0.1 mm 2 mps 733 mmHg 76%
    10:00 +7°C° 0.1 mm 2 mps 733 mmHg 74%
    11:00 +7°C° 0.2 mm 2 mps 733 mmHg 77%
    12:00 +6°C° 0.2 mm 2 mps 733 mmHg 81%
    13:00 +6°C° 0.2 mm 2 mps 733 mmHg 84%
    14:00 +7°C° 0.1 mm 3 mps 733 mmHg 84%
    15:00 +7°C° 0.1 mm 3 mps 733 mmHg 83%
    16:00 +7°C° 0.1 mm 3 mps 733 mmHg 83%
    17:00 +7°C° 0.1 mm 3 mps 733 mmHg 82%
    18:00 +7°C° 0.1 mm 3 mps 733 mmHg 81%
    19:00 +5°C° 0.1 mm 3 mps 733 mmHg 80%
    20:00 +4°C° 0 mm 3 mps 733 mmHg 85%
    21:00 +4°C° 0 mm 2 mps 734 mmHg 89%
    22:00 +4°C° 0 mm 2 mps 734 mmHg 94%
    23:00 +3°C° 0 mm 2 mps 734 mmHg 95%

    25 April, Thursday

    Time Temperature Precipitation Wind Pressure Humidity
    00:00 +3°C° 0 mm 2 mps 734 mmHg 95%
    01:00 +3°C° 0 mm 2 mps 734 mmHg 96%
    02:00 +2°C° 0 mm 2 mps 734 mmHg 97%
    03:00 +2°C° 0 mm 2 mps 734 mmHg 97%
    04:00 +2°C° 0 mm 2 mps 735 mmHg 97%
    05:00 +2°C° 0 mm 2 mps 735 mmHg 94%
    06:00 +3°C° 0 mm 2 mps 735 mmHg 91%
    07:00 +3°C° 0 mm 3 mps 736 mmHg 88%
    08:00 +4°C° 0 mm 3 mps 736 mmHg 82%
    09:00 +5°C° 0 mm 3 mps 736 mmHg 76%
    10:00 +7°C° 0 mm 3 mps 736 mmHg 70%
    11:00 +8°C° 0 mm 3 mps 735 mmHg 66%
    12:00 +9°C° 0 mm 3 mps 735 mmHg 63%
    13:00 +10°C° 0 mm 3 mps 735 mmHg 59%
    14:00 +11°C° 0 mm 3 mps 734 mmHg 57%
    15:00 +12°C° 0 mm 4 mps 734 mmHg 55%
    16:00 +13°C° 0 mm 4 mps 734 mmHg 52%
    17:00 +11°C° 0.3 mm 4 mps 733 mmHg 61%
    18:00 +10°C° 0.3 mm 4 mps 733 mmHg 70%
    19:00 +8°C° 0.3 mm 4 mps 733 mmHg 80%
    20:00 +7°C° 0 mm 3 mps 733 mmHg 83%
    21:00 +6°C° 0 mm 2 mps 734 mmHg 87%
    22:00 +4°C° 0 mm 2 mps 734 mmHg 91%
    23:00 +4°C° 0 mm 2 mps 734 mmHg 92%
    Show more